Find Starlink 32897

NORAD ID: 62967 Int'l Des: 2025-029 Owner: SPXS Country: US Constellation: starlink operational
LEOCIRCULAR

リアルタイム位置

3D地球を読み込み中...

Starlink 32897について

説明を読み込み中...

次回通過

Passes for default location (London). Set your location on the main map for personalized predictions.

高度履歴

Loading altitude history...

軌道要素

1 62967U 25029V 26125.80318227 .00046256 00000-0 15615-2 0 9998
2 62967 53.1597 327.0442 0001538 103.2710 256.8463 15.30255520 70060
Epoch: May 5, 2026 • Age: 6 hours

現在のステータス

高度 492.8 km
速度 7.62 km/s
衛星直下点 -48.85°S, 24.84°E
打ち上げ日 Feb 11, 2025
運用期間 1.2 years
タイプ internet

技術仕様

分類 Payload
質量 730.00 kg
乾燥質量 700.00 kg
総質量 730.00 kg
長さ 0.30 m
直径 4.10 m
スパン 29.00 m
形状 Box + pan
製造者 SPXS
バスタイプ Starlink V2M
フェーズステータス In Orbit
所有者/国 SPXS/US

Most Searched